Skip Page Navigation
NASA JPL Caltech
NASA Logo - Jet Propulsion Laboratory + View the NASA Portal
+ Center for Near-Earth Object Studies
JPL Home Earth Solar System Stars & Galaxies Technology
JPL Solar System Dynamics
BODIES ORBITS EPHEMERIDES TOOLS PHYSICAL DATA DISCOVERY FAQ SITE MAP
IMPORTANT: The SSD Announcement email list is now available. Major changes are coming in the near future, including possible hostname and/or URL changes. To be notified of such changes, subscribe to this email list.

Please visit this page for more details.


JPL Small-Body Database Browser
Search: [ help ]  
133077 Jirsik (2003 JZ10)
Classification: Main-belt Asteroid          SPK-ID: 2133077
Ephemeris | Orbit Diagram | Orbital Elements | Mission Design | Physical Parameters | Discovery Circumstances | Close-Approach Data ]

[ hide orbit diagram ]

For accurate long-term ephemerides, please instead use our Horizons system.This orbit viewer was implemented using two-body methods, and hence should not be used for determining accurate long-term trajectories (over several years or decades) or planetary encounter circumstances.


[ revert to old Java-based viewer ]

Orbital Elements at Epoch 2459000.5 (2020-May-31.0) TDB
Reference: JPL 15 (heliocentric ecliptic J2000)
 Element Value Uncertainty (1-sigma)   Units 
e .04370288304844652 5.6482e-08  
a 2.247414157580522 1.5507e-08 au
q 2.149195679490357 1.3068e-07 au
i 4.016691072382785 6.3275e-06 deg
node 184.146375330553 5.7393e-05 deg
peri 322.9751207841546 7.4986e-05 deg
M 99.33337226718788 4.8177e-05 deg
tp 2458660.940586920999
(2019-Jun-26.44058692)
0.00016465 TDB
period 1230.617524789498
3.37
1.2737e-05
3.487e-08
d
yr
n .2925360583188342 3.0278e-09 deg/d
Q 2.345632635670686 1.6185e-08 au
  Orbit Determination Parameters
   # obs. used (total)      319  
   data-arc span      7797 days (21.35 yr)  
   first obs. used      1997-09-03  
   last obs. used      2019-01-08  
   planetary ephem.      DE431  
   SB-pert. ephem.      SB431-N16  
   condition code      0  
   norm. resid. RMS      .65995  
   source      ORB  
   producer      Otto Matic  
   solution date      2019-Jul-13 19:05:16  

Additional Information
 Earth MOID = 1.16122 au 
 Jupiter MOID = 2.63323 au 
 T_jup = 3.625 
[ show covariance matrix ]

Ephemeris | Orbit Diagram | Orbital Elements | Mission Design | Physical Parameters | Discovery Circumstances | Close-Approach Data ]

Physical Parameter Table
Parameter Symbol Value Units Sigma Reference Notes
absolute magnitude H 16.9   n/a MPO422474  

133077 Jirsík           Discovered 2003 May 4 by J. Ticha and M. Tichy at Klet.
Jan Valerián Jirsík (1798-1883) was as Czech theologian, priest, writer and national revivalist. He served as Bishop of the Ceské Budejovice diocese from 1851 to his death. He was a keen supporter of the Czech educational system in South Bohemia and the founder of the Institute for deaf-mute persons.
NOTE: some special characters may not display properly (any characters within {} are an attempt to place the proper accent above a character)
Reference: MPC batch dated 2017-12-03Last Updated: 2017-12-07

[ show close-approach data ]
Alternate Designations
 2003 JZ10 = 2001 WH9 
Ephemeris | Orbit Diagram | Orbital Elements | Mission Design | Physical Parameters | Discovery Circumstances | Close-Approach Data ]
ABOUT SSD CREDITS/AWARDS PRIVACY/COPYRIGHT GLOSSARY LINKS
FirstGov 2020-Feb-23 20:23 UT
(server date/time)  
NASA Home Page
Site Manager:   Ryan S. Park
Webmaster  Alan B. Chamberlin